Dillon, MT

9:58 PM MDT on June 25, 2017 (GMT -0600)
Dillon

Weather History for KDLN - February, 2013

Change the Weather History Date:

Thursday, February 7, 2013

  Actual Average Record
Temperature  
Mean Temperature 31 °F 24 °F  
Max Temperature 41 °F 35 °F 57 °F (1991)
Min Temperature 20 °F 14 °F -35 °F (1936)
Degree Days  
Heating Degree Days 34    
Month to date heating degree days 219  
Since 1 July heating degree days 4619  
Cooling Degree Days 0    
Month to date cooling degree days 0  
Year to date cooling degree days 0  
Moisture  
Dew Point 16 °F    
Average Humidity 55    
Maximum Humidity 77    
Minimum Humidity 32    
Precipitation  
Precipitation 0.00 in 0.01 in 0.09 in (1959)
Month to date precipitation 0.00 0.05  
Year to date precipitation 0.18 0.33  
Snow  
Snow 0.00 in - - ()
Snow Depth 0.00 in    
Sea Level Pressure  
Sea Level Pressure 30.02 in    
Wind  
Wind Speed 5 mph (SSW)    
Max Wind Speed 32 mph    
Max Gust Speed 36 mph    
T = Trace of Precipitation, MM = Missing Value Source: NWS Daily Summary

Daily Weather History Graph

Daily Weather History Graph

Search for Another Location

Airport or City:

Trip Planner

Search our weather history database for the weather conditions in past years. The results will help you decide how hot, cold, wet, or windy it might be!

Date:

Astronomy

Feb. 07, 2013 Rise Set
Actual Time 7:42 AM MST 5:46 PM MST
Civil Twilight 7:11 AM MST 6:17 PM MST
Nautical Twilight 6:36 AM MST 6:52 PM MST
Astronomical Twilight 6:02 AM MST 7:26 PM MST
Moon 5:29 AM MST (2/7) 3:11 PM MST (2/7)
Length of Visible Light 11h 05m
Length of Day
10h 04m
Waning Crescent, 8% of the Moon is Illuminated
Feb 7
Waning Crescent
Feb 10
New
Feb 17
First Quarter
Feb 25
Full
Mar 4
Last Quarter

Hourly Weather History & Observations

Time (MST) Temp. Windchill Dew Point Humidity Pressure Visibility Wind Dir Wind Speed Gust Speed Precip Events Conditions
12:53 AM 21.9 °F 13.4 °F 15.1 °F 75% 30.14 in - South 6.9 mph - N/A   Partly Cloudy
1:53 AM 23.0 °F 14.7 °F 16.0 °F 74% 30.12 in - South 6.9 mph - N/A   Clear
2:53 AM 24.1 °F 17.0 °F 16.0 °F 71% 30.12 in - South 5.8 mph - N/A   Scattered Clouds
3:53 AM 21.9 °F - 15.1 °F 75% 30.09 in - Calm Calm - N/A   Clear
4:53 AM 21.9 °F - 16.0 °F 78% 30.10 in - Calm Calm - N/A   Scattered Clouds
5:53 AM 24.1 °F 16.0 °F 15.1 °F 69% 30.10 in - SW 6.9 mph - N/A   Partly Cloudy
6:53 AM 21.9 °F 15.7 °F 15.1 °F 75% 30.11 in - SE 4.6 mph - N/A   Partly Cloudy
7:53 AM 21.9 °F - 15.1 °F 75% 30.12 in - Calm Calm - N/A   Partly Cloudy
8:53 AM 24.1 °F 17.0 °F 17.1 °F 75% 30.12 in - East 5.8 mph - N/A   Clear
9:53 AM 28.0 °F - 18.0 °F 66% 30.10 in - Calm Calm - N/A   Clear
10:53 AM 32.0 °F - 18.0 °F 56% 30.08 in - Calm Calm - N/A   Clear
11:53 AM 35.1 °F - 18.0 °F 50% 30.04 in - Calm Calm - N/A   Clear
12:53 PM 39.0 °F 31.4 °F 15.1 °F 38% 29.99 in - SSW 12.7 mph 17.3 mph N/A   Clear
1:53 PM 41.0 °F - 14.0 °F 33% 29.95 in - Calm Calm - N/A   Clear
2:37 PM 39.2 °F 33.0 °F 15.8 °F 39% 29.87 in - SW 9.2 mph 35.7 mph N/A   Squalls
2:53 PM 39.9 °F 33.9 °F 15.1 °F 36% 29.93 in - SSW 9.2 mph - N/A   Clear
3:53 PM 39.0 °F 32.8 °F 15.1 °F 38% 29.94 in - SSW 9.2 mph - N/A   Clear
4:53 PM 36.0 °F 29.0 °F 16.0 °F 44% 29.94 in - SSW 9.2 mph - N/A   Clear
5:53 PM 34.0 °F 29.8 °F 17.1 °F 50% 29.95 in - South 4.6 mph - N/A   Partly Cloudy
6:53 PM 32.0 °F 25.6 °F 17.1 °F 54% 29.97 in - WSW 6.9 mph - N/A   Clear
7:53 PM 32.0 °F - 16.0 °F 52% 29.97 in - Calm Calm - N/A   Clear
8:53 PM 28.9 °F 23.9 °F 17.1 °F 61% 29.97 in - WSW 4.6 mph - N/A   Clear
9:53 PM 27.0 °F 20.5 °F 17.1 °F 66% 29.96 in - West 5.8 mph - N/A   Clear
10:53 PM 25.0 °F 18.1 °F 18.0 °F 75% 29.96 in - SE 5.8 mph - N/A   Clear
11:53 PM 25.0 °F 17.1 °F 17.1 °F 72% 29.95 in - SSE 6.9 mph - N/A   Clear